Regional Weather Roundup
Issued by NWS Newport/Morehead, NC

Home | Current Version | Previous Version | Text Only | Print | Product List | Glossary On
Versions: 1 2 3 4 5 6 7 8 9 10 11 12 13 14 15 16 17 18 19 20 21 22 23 24 25 26 27 28 29 30 31 32 33 34 35 36 37 38 39 40 41 42 43 44 45 46 47 48 49 50
000
ASUS42 KMHX 190710
RWRMHX
WEATHER ROUNDUP FOR EASTERN NORTH CAROLINA
NATIONAL WEATHER SERVICE NEWPORT/MOREHEAD CITY NC
200 AM EST FRI DEC 19 2014

NOTE: "FAIR" INDICATES FEW OR NO CLOUDS BELOW 12,000 FEET
WITH NO SIGNIFICANT WEATHER AND/OR OBSTRUCTIONS TO VISIBILITY

NCZ015>017-031-032-045>047-102-103-190800-
NORTH COAST

CITY           SKY/WX    TMP DP  RH WIND       PRES   REMARKS
EDENTON          N/A     35  32  90 N3        30.10S
ELIZABETH CITY MOCLDY    41  34  76 N5        30.11R
KITTY HAWK     CLOUDY    42  35  77 CALM      30.08S
MANTEO         MOCLDY    42  37  79 W5        30.10R

$$

NCZ045>047-081-094-103-104-190800-
CENTRAL COAST

CITY           SKY/WX    TMP DP  RH WIND       PRES   REMARKS
FRISCO         CLOUDY    40  39  97 CALM      30.09S
SWANQUARTER      N/A     37 N/A N/A NW1       30.06S

$$

NCZ095-097-098-100-101-190800-
SOUTHERN COAST

CITY           SKY/WX    TMP DP  RH WIND       PRES   REMARKS
BEAUFORT       CLOUDY    41  36  82 CALM      30.10R
CEDAR ISLAND     N/A     41 N/A N/A W3        30.12S
JACKSONVILLE   CLOUDY    37  35  92 NW5       30.11R
PINEY ISLAND   MOSUNNY   44  33  65 CALM      30.10R
WILMINGTON     MOCLDY    36  34  92 CALM      30.10S


$$

NCZ011>013-027>030-043-044-078>080-089-090>093-098-190800-
COASTAL PLAIN

CITY           SKY/WX    TMP DP  RH WIND       PRES   REMARKS
AHOSKIE        CLOUDY    31  30  94 CALM      30.12R
CLINTON        MOCLDY    37  36  94 CALM      30.11F
ELIZABETHTOWN  MOCLDY    36  33  88 CALM      30.09S
GOLDSBORO      CLOUDY    38  37  98 CALM      30.09S
GREENVILLE     PTCLDY    32  32 100 CALM      30.12S FOG
HAVELOCK       PTCLDY    39  33  79 N3        30.11R
KENANSVILLE    CLEAR     34  33  93 CALM      30.11S
KINSTON        CLOUDY    34  32  94 CALM      30.12R
NEW BERN       CLEAR     36  31  82 CALM      30.11S
RICHLANDS      CLOUDY    37  34  87 CALM      30.11R
ROCKY MOUNT    CLOUDY    33  32  96 CALM      30.11S
WASHINGTON     CLEAR     33  32  95 CALM      30.11R
WHITEVILLE     PTCLDY    35  32  90 CALM      30.08F

$$

AMZ130-135-150-152-154-156-158-170-250-252-270-ANZ085-086-088-633-658-670-190800-
MARINE OBSERVATIONS

STATION/POSITION TIME  TEMP    WIND        PRES    WAVE   SWELL
                       AIR SEA DIR/SP/G            HT/PER HT/PER
                 (UTC) (F)     (DEG/KT/KT) (MB)    (FT/S) (FT/S)
CHESAPEAKE LIGHT 0600   41     340/  9/ 11 1019.8
64 E VA BEACH    0700   44 55  320/ 10/ 12 1018.2    3/ 5   2/ 5
DUCK             0700   44 48  320/  5/  5 1018.2
2 E DUCK         0700      48                N/A     2/ 5
10 NE DUCK       0700      51                N/A     3/ 6   2/11
OREGON INLET     0700   44 50  260/  3/  5 1018.7
13E OREGON INLT  0700      53                N/A     3/ 6
HATTERAS CG      0700   46 55  330/  2/  4 1019.1
DIAMOND BUOY     0700   48                 1019.0    3/ 8
17 S OCRACOKE    NOT AVBL
CAPE LOOKOUT     0600   48      30/  1/  1 1018.6
BEAUFORT LAB     0700   44 52  350/  2/  2 1018.0
30 SE NEW RIVER  0700   53 62  310/  4/  4 1019.4    1/10   2/10
5 SE WRIGHTSVLE  0600   48 55   30/  4/  4 1019.1
225 S CAPE HAT   0640   69 72  280/ 10/ 12 1017.6    3/ 5   2/ 5
41 SE CHARLESTON 0700   60 72  330/  8/ 12 1018.5    2/10   2/10

$$



USA.gov is the U.S. government's official web portal to all federal, state and local government web resources and services.